Regional Weather Roundup
Issued by NWS Sioux Falls, SD

Home | Current Version | Previous Version | Text Only | Print | Product List | Glossary Off
Versions: 1 2 3 4 5 6 7 8 9 10 11 12 13 14 15 16 17 18 19 20 21 22 23 24 25 26 27 28 29 30 31 32 33 34 35 36 37 38 39 40 41 42 43 44 45 46 47 48 49 50

000
ASUS43 KFSD 292102
RWRFSD

WEATHER ROUNDUP FOR SE SOUTH DAKOTA/SW MINNESOTA/NW IOWA
NATIONAL WEATHER SERVICE SIOUX FALLS SD
400 PM CDT FRI MAY 29 2015

NOTE: "FAIR" INDICATES FEW OR NO CLOUDS BELOW 12,000 FEET WITH NO
SIGNIFICANT WEATHER AND OR OBSTRUCTIONS TO VISIBILITY.


SDZ038>040-050-052>070-292200-
SOUTHEAST SOUTH DAKOTA

CITY           SKY/WX    TMP DP  RH WIND       PRES   REMARKS
BROOKINGS      CLOUDY    48  45  87 N22G29    30.05R
CHAMBERLAIN    CLOUDY    51  46  84 N17G26    30.15R
HURON          CLOUDY    52  45  77 N25G33    30.11R
MADISON        CLOUDY    50  50 100 N25G35    30.04R
MITCHELL       LGT RAIN  53  49  86 N25G32    30.08R
SIOUX FALLS    LGT RAIN  55  51  86 N18G29    30.00R
WINNER         LGT RAIN  52  46  80 N23       30.17R
YANKTON        CLOUDY    57  54  88 N20G28    29.99R
$$

MNZ071-072-080-081-089-090-097-098-292200-
SOUTHWEST MINNESOTA

CITY           SKY/WX    TMP DP  RH WIND       PRES   REMARKS
FAIRMONT       CLOUDY    68  61  77 NW16      29.89R
JACKSON        CLOUDY    61  59  94 NW20G31   29.93R
LUVERNE        LGT RAIN  54  52  94 N15G22    29.99R
MARSHALL       CLOUDY    48  43  81 N28       30.01R
MONTEVIDEO     DRIZZLE   52  52 100 N21G26    30.03R
PIPESTONE      LGT RAIN  52  48  87 N13G26    30.00R
REDWOOD FALLS  LGT RAIN  60  58  92 NW12      29.95R FOG
TRACY          LGT RAIN  52  51  97 NW21G28   30.00R
WINDOM         LGT RAIN  57  55  94 NW22G28   29.95R
WORTHINGTON    CLOUDY    55  50  82 N23G29    29.96S
$$

IAZ001>003-012>014-020>022-031-032-NEZ013-014-SDZ071-292200-
NORTHWEST IOWA

CITY           SKY/WX    TMP DP  RH WIND       PRES   REMARKS
DENISON        CLOUDY    75  64  69 SW10G17   29.88S
ESTHERVILLE    CLOUDY    65  62  90 NW22      29.89R
SIOUX CITY     CLOUDY    76  59  55 N15       29.88R
SPENCER        CLOUDY    64  59  83 N25G31    29.91R
$$

ABBREVIATIONS USED IN REMARKS
   TC - TEMPERATURE IN CELSIUS
  WCI - WIND CHILL INDEX
   HX - HEAT INDEX
  VSB - VISIBILITY




USA.gov is the U.S. government's official web portal to all federal, state and local government web resources and services.